Regional Weather Roundup
Issued by NWS Sterling, VA

Home | Current Version | Previous Version | Text Only | Print | Product List | Glossary On
Versions: 1 2 3 4 5 6 7 8 9 10 11 12 13 14 15 16 17 18 19 20 21 22 23 24 25 26 27 28 29 30 31 32 33 34 35 36 37 38 39 40 41 42 43 44 45 46 47 48 49 50
000
ASUS41 KLWX 210310
RWRLWX

REGIONAL WEATHER ROUNDUP
NATIONAL WEATHER SERVICE BALTIMORE MD/WASHINGTON DC
1100 PM EDT SAT SEP 20 2014

Note: "FAIR" indicates few or no clouds below 12,000 feet
with no significant weather and/or obstructions to visibility.
 TC=TEMPERATURE CELSIUS

 * =Non NWS site. Station does not report precipitation (e.g. rain,
    snow, etc.), thunder, or fog.

DCZ001-MDZ009-015-VAZ040>042-051-053>054-210400-
WASHINGTON METRO

CITY           SKY/WX    TMP DP  RH WIND       PRES   REMARKS
WASHINGTON NAT CLEAR     70  61  73 SW6       30.06R
DULLES         CLEAR     63  60  90 SW3       30.07R
ANDREWS AFB    CLEAR     66  62  86 SW5       30.06R
QUANTICO       CLEAR     70  63  78 VRB5      30.06R
COLLEGE PARK*  CLEAR     64  63  94 CALM      30.06R
LEESBURG*      CLEAR     64  63  94 S6        30.08R
MANASSAS*      CLEAR     63  63 100 NW3       30.07R
GAITHERSBURG*  CLEAR     61  57  88 CALM      30.11R

$$

MDZ006>007-011-014-210400-
BALTIMORE METRO

CITY           SKY/WX    TMP DP  RH WIND       PRES   REMARKS
BWI AIRPORT    PTCLDY    64  60  87 CALM      30.05S
MD SCIENCE CTR   N/A     72  63  73 MISG      30.05S
MARTIN STATE   CLEAR     68  64  88 E5        30.07S
ANNAPOLIS      CLEAR     71  63  75 SE9       30.05S
FORT MEADE*    CLEAR     59  55  88 CALM      30.08S

$$

MDZ012-015-019>023-210400-
MARYLAND EASTERN SHORE

CITY           SKY/WX    TMP DP  RH WIND       PRES   REMARKS
OCEAN CITY     MOCLDY    72  68  87 E5        30.02F
SALISBURY      CLOUDY    71  66  84 CALM      30.02F
BAY BRIDGE AP*   N/A     66  61  82 E5        30.05S
CAMBRIDGE*     CLOUDY    70  64  83 N3        30.03F
EASTON*        PTCLDY    65  65 100 CALM      30.08F

$$

MDZ017>025-210400-
SOUTHERN MARYLAND

CITY           SKY/WX    TMP DP  RH WIND       PRES   REMARKS
PATUXENT RIVER MOCLDY    69  64  84 NE3       30.03F
ST INIGOES     MOCLDY    63  59  87 CALM      30.02F
LEONARDTOWN*   MOCLDY    63  59  88 CALM      30.06S

$$

MDZ003>005-210400-
NORTH CENTRAL MARYLAND

CITY           SKY/WX    TMP DP  RH WIND       PRES   REMARKS
FREDERICK*     CLEAR     63  61  94 CALM      30.10R
HAGERSTOWN APT PTCLDY    67  56  67 S7        30.07R
WESTMINSTER*   CLEAR    N/A N/A N/A CALM      30.08S

$$

MDZ501>502-210400-
WESTERN MARYLAND

CITY           SKY/WX    TMP DP  RH WIND       PRES   REMARKS
OAKLAND*       PTCLDY    61  61 100 SW7       30.11F
CUMBERLAND*    PTCLDY    68  54  60 CALM      30.09R

$$

VAZ025>031-210400-
SHENANDOAH VALLEY

CITY           SKY/WX    TMP DP  RH WIND       PRES   REMARKS
WINCHESTER*    CLEAR     66  54  63 S3        30.08R
STAUNTON*      CLEAR     60  53  79 CALM      30.11S

$$

WVZ021-048>050-054>055-210400-
EASTERN WEST VIRGINIA PANHANDLE

CITY           SKY/WX    TMP DP  RH WIND       PRES   REMARKS
MARTINSBURG    PTCLDY    64  55  72 SW3       30.08R
PETERSBURG*    PTCLDY    61  58  91 CALM      30.07S

$$

VAZ036>039-050-210400-
CENTRAL FOOTHILLS

CITY           SKY/WX    TMP DP  RH WIND       PRES   REMARKS
CHARLOTTESVILL CLEAR     62  58  86 NW3       30.09R
ORANGE*        CLEAR     61  57  88 CALM      30.09R

$$

VAZ055>057-210400-
NORTH AND CENTRAL PIEDMONT

CITY           SKY/WX    TMP DP  RH WIND       PRES   REMARKS
FREDERICKSBRG* CLEAR     66  61  86 CALM      30.04S
STAFFORD*      CLEAR     60  60 100 NW6       30.10R

$$

NCZ024-NYZ072-PAZ021-071-VAZ022-071-210400-
OTHER REGIONAL OBSERVATIONS

CITY           SKY/WX    TMP DP  RH WIND       PRES   REMARKS
NEW YORK CITY  MOCLDY    69  63  81 CALM      30.10F
PHILADELPHIA   MOCLDY    67  62  84 CALM      30.06F
PITTSBURGH     PTCLDY    68  61  78 S6        29.98F
ROANOKE        CLEAR     62  58  86 CALM      30.11R
RICHMOND       MOCLDY    67  63  87 N3        30.04S
RALEIGH        CLOUDY    68  61  78 NE5       30.01F

$$

ANZ530>537-210400-
MARINE OBSERVATIONS

STATION/POSITION TIME  TEMP    WIND        PRES
                       AIR SEA DIR/SP/G
                 (UTC) (F)     (DEG/KT/KT) (MB)
THOMAS PT LIGHT  0300   70 74  120/  8/  8 1018.2F
BALT KEY BRIDGE  0300   72     120/ 12/ 14 1017.3R
COVE POINT       0300   70     140/  5/  7 1017.1F
LEWISETTA        0300   71 74  100/  6/  7 1016.3R
SOLOMONS ISLAND  0300      76                N/A
PINEY POINT      0300           20/  5/  5   N/A

$$



USA.gov is the U.S. government's official web portal to all federal, state and local government web resources and services.